Effective Sunday, March 17, 2024, the National Weather Service National Data Buoy Center will discontinue its Dial-A-Buoy Interactive Voice Response system. For more information, see Service Change Notice 24-06 (PDF).

Station KECA2 - 9450460 - Ketchikan, AK Image indicating link to RSS feed of recent meteorological observations for station KECA2


Conditions at KECA2 as of
(3:18 pm AKST on 03/04/2024)
0018 GMT on 03/05/2024:
     

Click on the graph icon in the table below to see a time series plot of the last five days of that observation.

5-day plot - Wind Direction Wind Direction (WDIR):WNW ( 290 deg true )
5-day plot - Wind Speed Wind Speed (WSPD): 11.1 kts
5-day plot - Wind Gust Wind Gust (GST): 15.0 kts
5-day plot - Atmospheric Pressure Atmospheric Pressure (PRES):30.07 in
5-day plot - Air Temperature Air Temperature (ATMP): 28.0 °F
5-day plot - Water Temperature Water Temperature (WTMP): 42.4 °F
5-day plot - Ice Accretion Ice Accretion (ICE): 0.00 in per hour
5-day plot - Wind Chill Wind Chill (CHILL): 17.4 °F
5-day plot - Wind Speed at 10 Meters Wind Speed at 10 meters (WSPD10M): 11.7 kts
5-day plot - Wind Speed at 20 Meters Wind Speed at 20 meters (WSPD20M): 13.6 kts
5-day plot -  Wind Speed, Wind Gust and Atmospheric Pressure Combined plot of Wind Speed, Gust, and Air Pressure
NOS Water Level Observation Network Water Level
Previous observations
TIME
(AKST)
5-day plot - Wind Direction
WDIR
 
5-day plot - Wind Speed
WSPD
kts
5-day plot - Wind Gust
GST
kts
5-day plot - Wave Height
WVHT
ft
5-day plot - Dominant Wave Period
DPD
sec
5-day plot - Average Wave Period
APD
sec
5-day plot - Mean Wave Direction
MWD
 
5-day plot - Atmospheric Pressure
PRES
in
5-day plot - Pressure Tendency
PTDY
in
5-day plot - Air Temperature
ATMP
°F
5-day plot - Water Temperature
WTMP
°F
5-day plot - Dew Point
DEWP
°F
5-day plot - Salinity
SAL
psu
5-day plot - Visibility
VIS
nmi
5-day plot - Tide (above MLLW)
TIDE
ft
2024-03-04 03:12 pmWNW 12.0 15.9----30.08- 27.5 42.4----
2024-03-04 03:06 pmWNW 11.1 15.0----30.07- 27.9 42.4----
2024-03-04 03:00 pm-------30.07-0.01 28.0 42.4----
2024-03-04 02:54 pm-------30.08- 28.4 42.4----
2024-03-04 02:48 pmWNW 12.0 14.0----30.08- 28.8 42.4----
2024-03-04 02:42 pmWNW 11.1 14.0----30.08- 28.9 42.4----
2024-03-04 02:36 pmWNW 11.1 14.0----30.08- 28.8 42.4----
2024-03-04 02:30 pmWNW 11.1 13.0----30.07- 28.9 42.4----
2024-03-04 02:24 pmWNW 9.9 12.0----30.07- 29.3 42.6----
2024-03-04 02:18 pmWNW 9.9 12.0----30.07- 29.3 42.6----
2024-03-04 02:12 pm NW 8.0 12.0----30.07- 29.1 42.6----
2024-03-04 02:06 pmWNW 8.0 12.0----30.08- 28.8 42.6----
2024-03-04 02:00 pmWNW 8.9 12.0----30.08- 28.9 42.8----
2024-03-04 01:54 pmWNW 8.9 12.0----30.08- 29.1 42.8----
2024-03-04 01:48 pmWNW 8.0 13.0----30.08-- 42.8----
2024-03-04 01:42 pm NW 8.0 11.1----30.08-- 42.8----
2024-03-04 01:36 pmWNW 9.9 13.0----30.08-- 42.8----
2024-03-04 01:30 pmWNW 8.9 12.0----30.08- 28.4 42.8----
2024-03-04 01:24 pmWNW 6.0 8.9----30.08- 28.0 42.6----
2024-03-04 01:18 pmWNW 8.0 9.9----30.08- 27.5 42.6----
2024-03-04 01:12 pm NW 7.0 9.9----30.08- 28.0 42.6----
2024-03-04 01:06 pmWNW 6.0 8.9----30.08- 28.8 42.6----
2024-03-04 01:00 pmWNW 5.1 9.9----30.08-0.01 28.9 42.6----
2024-03-04 12:54 pmWNW 5.1 8.0----30.08- 28.4 42.6----
2024-03-04 12:48 pmWNW 5.1 9.9----30.08- 28.2 42.6----
2024-03-04 12:42 pmWNW 5.1 8.9----30.08- 29.5 42.6----
2024-03-04 12:36 pmWNW 7.0 8.0----30.08- 28.9 42.4----
2024-03-04 12:30 pmWNW 5.1 7.0----30.09- 28.8 42.4----
2024-03-04 12:24 pmWNW 6.0 8.0----30.09- 28.6 42.4----
2024-03-04 12:18 pmWNW 7.0 8.9----30.09- 28.2 42.4----
2024-03-04 12:12 pm W 6.0 8.0----30.09- 27.1 42.4----
2024-03-04 12:06 pm W 4.1 8.0----30.09- 26.4 42.4----
2024-03-04 12:00 pmWNW 7.0 9.9----30.09+0.00 27.5 42.4----
2024-03-04 11:54 amWNW 6.0 11.1----30.09- 28.6 42.4----
2024-03-04 11:48 am W 7.0 8.9----30.09- 26.8 42.4----
2024-03-04 11:42 amWNW 8.0 9.9----30.09- 27.5 42.4----
2024-03-04 11:36 amWNW 8.0 9.9----30.09- 27.1 42.4----
2024-03-04 11:30 amWNW 6.0 11.1----30.09- 27.0 42.4----
2024-03-04 11:24 amWNW 8.0 12.0----30.09- 27.3 42.4----
2024-03-04 11:18 amWNW 8.0 12.0----30.09- 27.1 42.4----
2024-03-04 11:12 amWNW 8.0 11.1----30.09- 27.1 42.4----
2024-03-04 11:06 amWNW 6.0 8.0----30.09- 27.0 42.4----
2024-03-04 11:00 amWNW 4.1 7.0------- 42.4----
2024-03-04 10:54 amWNW 5.1 7.0------- 42.4----
2024-03-04 10:48 am W 5.1 7.0----30.09- 26.2 42.4----
2024-03-04 10:42 am W 1.9 2.9----30.09- 26.4 42.4----
2024-03-04 10:36 am W 2.9 7.0----30.09- 25.9 42.4----
2024-03-04 10:30 am W 1.9 5.1----30.09- 26.1 42.4----
2024-03-04 10:24 am W 4.1 5.1----30.09- 26.4 42.4----
2024-03-04 10:18 am- 0.0 1.9----30.09- 27.5 42.4----
2024-03-04 10:12 amESE 1.9 1.9----30.09- 27.0 42.4----
2024-03-04 10:06 am- 0.0 1.0----30.09- 28.9 42.4----
2024-03-04 10:00 am- 0.0 1.9----30.09+0.03 26.6 42.4----
2024-03-04 09:54 am- 0.0 1.9----30.09- 26.2 42.4----
2024-03-04 09:48 am SW 1.0 1.9----30.09- 26.2 42.4----
2024-03-04 09:42 am W 1.0 2.9----30.09- 25.2 42.6----
2024-03-04 09:36 amWSW 1.9 2.9----30.09- 24.4 42.6----
2024-03-04 09:30 am W 2.9 4.1----30.09- 23.9 42.6----
2024-03-04 09:24 amWNW 4.1 5.1----30.09- 27.1 42.6----
2024-03-04 09:18 am- 0.0 2.9----30.09- 27.1 42.6----
2024-03-04 09:12 am W 1.0 2.9----30.09- 25.3 42.6----
2024-03-04 09:06 am- 0.0 1.0----30.09- 25.9 42.6----
2024-03-04 09:00 am- 0.0 1.0----30.09+0.02 25.5 42.8----
2024-03-04 08:54 am W 1.0 2.9----30.09- 24.6 42.8----
2024-03-04 08:48 amWNW 1.9 4.1----30.08- 26.1 42.8----
2024-03-04 08:42 amWSW 1.0 1.9----30.08- 23.7 42.8----
2024-03-04 08:36 am- 0.0 1.0----30.08- 24.3 42.8----
2024-03-04 08:30 am W 1.0 2.9----30.08- 24.1 43.0----
2024-03-04 08:24 am W 1.9 1.9----30.08- 24.3 43.0----
2024-03-04 08:18 am- 0.0 1.9----30.08- 25.2 43.0----
2024-03-04 08:12 amWNW 1.0 1.9----30.08- 25.3 42.8----
2024-03-04 08:06 am- 0.0 1.9----30.07- 23.7 42.8----
2024-03-04 08:00 am- 0.0 2.9----30.07+0.01 23.9 42.8----
2024-03-04 07:54 amWSW 2.9 4.1----30.07- 22.3 42.8----
2024-03-04 07:48 am- 0.0 1.0----30.07- 22.1 42.8----
2024-03-04 07:42 amENE 1.0 1.0----30.07- 21.6 42.8----
2024-03-04 07:36 am- 0.0 1.0----30.07- 22.6 42.8----
2024-03-04 07:30 am- 0.0 1.9----30.07- 21.4 42.8----
2024-03-04 07:24 amNNE 1.9 1.9----30.06- 19.6 42.8----
2024-03-04 07:18 amWSW 1.0 2.9----30.07- 19.8 42.8----
2024-03-04 07:12 am- 0.0 1.9----30.07- 19.4 42.8----
2024-03-04 07:06 am- 0.0 2.9----30.07- 19.0 42.8----
2024-03-04 07:00 am- 0.0 2.9----30.07+0.01 19.9 42.8----
2024-03-04 06:54 amNNW 1.0 4.1----30.07- 19.6 42.8----
2024-03-04 06:48 am- 0.0 6.0----30.07- 19.8 42.8----
2024-03-04 06:42 amNNE 2.9 5.1----30.07- 19.4 42.8----
2024-03-04 06:36 am N 4.1 7.0----30.07- 18.9 42.8----
2024-03-04 06:30 am NW 2.9 5.1----30.06- 18.1 42.8----
2024-03-04 06:24 am- 0.0 1.9----30.06- 18.5 42.8----
2024-03-04 06:18 am- 0.0 2.9----30.06- 18.9 42.8----
2024-03-04 06:12 amNNE 1.9 6.0----30.06- 19.4 42.8----
2024-03-04 06:06 am N 1.0 5.1----30.06- 19.0 42.8----
2024-03-04 06:00 amNNW 1.0 2.9----30.06+0.02 18.9 42.8----
2024-03-04 05:54 am- 0.0 1.0----30.06- 18.9 42.8----
2024-03-04 05:48 am NE 1.0 1.9----30.06- 18.7 42.8----
2024-03-04 05:42 amNNE 1.0 2.9----30.06- 17.8 42.8----
2024-03-04 05:36 am- 0.0 1.9----30.06- 18.5 42.8----
2024-03-04 05:30 am- 0.0 1.0----30.06- 18.7 42.8----
2024-03-04 05:24 am- 0.0 0.0----30.06- 18.9 42.8----
2024-03-04 05:18 am- 0.0 1.0----30.06- 19.0 42.8----
2024-03-04 05:12 am- 0.0 1.9----30.06- 18.5 42.8----
2024-03-04 05:06 am- 0.0 1.9----30.06- 18.5 42.8----
2024-03-04 05:00 amNNE 1.9 2.9----30.06+0.01 18.3 42.8----
2024-03-04 04:54 amNNE 1.9 2.9----30.06- 18.7 42.8----
2024-03-04 04:48 am NE 1.0 2.9----30.06- 19.0 42.6----
2024-03-04 04:42 am- 0.0 2.9----30.06- 18.9 42.6----
2024-03-04 04:36 amNNE 1.9 2.9----30.06- 18.7 42.6----
2024-03-04 04:30 amNNE 1.0 2.9----30.06- 19.4 42.6----
2024-03-04 04:24 amWSW 1.9 2.9----30.06- 19.4 42.6----
2024-03-04 04:18 am E 1.0 2.9----30.06- 19.2 42.6----
2024-03-04 04:12 amENE 1.9 2.9----30.06- 18.9 42.6----
2024-03-04 04:06 am NE 1.0 2.9----30.06- 18.7 42.6----
2024-03-04 04:00 amNNE 1.9 2.9----30.06+0.02 18.9 42.6----
2024-03-04 03:54 amNNE 1.0 2.9----30.06- 18.9 42.6----
2024-03-04 03:48 am- 0.0 4.1----30.05- 19.8 42.8----
2024-03-04 03:42 am NW 1.9 4.1----30.05- 19.9 42.6----
2024-03-04 03:36 amNNW 1.0 2.9----30.05- 19.8 42.8----
2024-03-04 03:30 am N 1.0 2.9----30.05- 20.3 42.8----
2024-03-04 03:24 amNNE 1.9 2.9----30.05- 19.4 42.8----
2024-03-04 03:18 amNNE 1.9 4.1----30.05- 20.3 42.8----
2024-03-04 03:12 amSSW 1.0 2.9----30.05- 20.7 42.8----
2024-03-04 03:06 amESE 1.9 5.1----30.05- 20.7 42.8----
2024-03-04 03:00 am N 4.1 6.0----30.04+0.01 21.4 42.8----
2024-03-04 02:54 am N 4.1 7.0----30.04- 21.2 42.8----
2024-03-04 02:48 am N 2.9 6.0----30.04- 21.0 42.8----
2024-03-04 02:42 am N 2.9 4.1----30.04- 20.3 42.6----
2024-03-04 02:36 am N 1.9 4.1----30.04- 21.0 42.6----
2024-03-04 02:30 am N 2.9 5.1----30.04- 20.3 42.6----
2024-03-04 02:24 am N 4.1 6.0----30.04- 20.7 42.6----
2024-03-04 02:18 am N 2.9 8.0----30.04- 21.4 42.6----
2024-03-04 02:12 am N 5.1 8.0----30.04- 21.2 42.4----
2024-03-04 02:06 am N 4.1 7.0----30.04- 21.0 42.4----
2024-03-04 02:00 am N 5.1 8.0----30.04+0.03 21.0 42.3----
2024-03-04 01:54 am N 5.1 7.0----30.04- 21.2 42.1----
2024-03-04 01:48 am N 6.0 7.0----30.04- 21.6 42.1----
2024-03-04 01:42 am N 4.1 5.1----30.04- 21.7 42.1----
2024-03-04 01:36 amNNE 1.9 2.9----30.04- 20.5 42.1----
2024-03-04 01:30 amNNE 2.9 4.1----30.04- 20.7 42.1----
2024-03-04 01:24 amNNE 1.9 2.9----30.04- 21.2 41.9----
2024-03-04 01:18 amNNE 2.9 5.1----30.04- 20.7 41.9----
2024-03-04 01:12 am N 4.1 5.1----30.04- 21.6 41.9----
2024-03-04 01:06 am N 2.9 5.1----30.04- 21.7 41.9----
2024-03-04 01:00 am N 5.1 7.0----30.04+0.04 21.6 41.9----
2024-03-04 12:54 am N 2.9 8.0----30.03- 22.1 41.9----
2024-03-04 12:48 am N 4.1 7.0----30.03- 22.3 41.9----
2024-03-04 12:42 am N 4.1 7.0----30.03- 22.1 41.9----
2024-03-04 12:36 am N 5.1 7.0----30.03- 22.3 42.1----
2024-03-04 12:30 am N 5.1 8.0----30.03- 22.3 42.1----
2024-03-04 12:24 am N 5.1 8.9----30.03- 22.5 42.1----
2024-03-04 12:18 am N 7.0 8.0----30.03- 22.3 42.1----
2024-03-04 12:12 am N 1.9 5.1----30.03- 22.8 42.1----
2024-03-04 12:06 am N 1.9 5.1----30.03- 22.6 42.1----
2024-03-04 12:00 am N 4.1 7.0----30.03+0.04 22.1 42.1----
2024-03-03 11:54 pm N 1.9 4.1----30.03- 22.5 42.3----
2024-03-03 11:48 pm N 1.9 2.9----30.03- 22.6 42.3----
2024-03-03 11:42 pmNNW 1.9 4.1----30.02- 22.6 42.3----
2024-03-03 11:36 pm N 1.9 4.1----30.02- 22.6 42.3----
2024-03-03 11:30 pm N 1.0 4.1----30.02- 22.6 42.4----
2024-03-03 11:24 pm N 1.9 5.1----30.02- 22.3 42.4----
2024-03-03 11:18 pmNNW 1.9 6.0----30.02- 22.8 42.4----
2024-03-03 11:12 pm NW 1.9 5.1----30.02- 23.2 42.4----
2024-03-03 11:06 pmNNW 1.9 6.0----30.01- 23.4 42.4----
2024-03-03 11:00 pm NW 5.1 8.0----30.01+0.03 23.2 42.6----
2024-03-03 10:54 pm NW 7.0 11.1----30.01- 23.5 42.6----
2024-03-03 10:48 pm NW 7.0 8.9----30.01- 23.4 42.4----
2024-03-03 10:42 pm NW 2.9 8.0----30.01- 24.1 42.4----
2024-03-03 10:36 pm N 2.9 7.0----30.01- 24.4 42.6----
2024-03-03 10:30 pm N 2.9 7.0----30.01- 24.3 42.6----
2024-03-03 10:24 pm NW 5.1 7.0----30.01- 23.7 42.6----
2024-03-03 10:18 pm NW 2.9 5.1----30.01- 24.6 42.6----
2024-03-03 10:12 pm N 2.9 6.0----30.01- 24.8 42.6----
2024-03-03 10:06 pm N 1.9 7.0----30.00- 25.2 42.6----
2024-03-03 10:00 pm NW 1.0 8.0----30.00+0.04 24.8 42.8----
2024-03-03 09:54 pm N 1.9 6.0----30.00- 24.3 42.8----
2024-03-03 09:48 pm N 6.0 9.9----30.00- 25.5 42.8----
2024-03-03 09:42 pm N 2.9 7.0----30.00- 24.4 42.8----
2024-03-03 09:36 pmNNE 1.0 2.9----30.00- 23.7 43.0----
2024-03-03 09:30 pmNNE 1.9 4.1----29.99- 22.6 43.0----
2024-03-03 09:24 pm- 0.0 4.1----29.99- 24.1 43.0----
2024-03-03 09:18 pm NW 1.9 5.1----29.99- 23.0 43.0----
2024-03-03 09:12 pmNNW 1.0 4.1----29.99- 22.5 43.2----
2024-03-03 09:06 pm- 0.0 2.9----29.99- 22.6 43.3----
2024-03-03 09:00 pm- 0.0 4.1----29.99+0.05 23.5 43.3----
2024-03-03 08:54 pm- 0.0 1.9----29.99- 23.5 43.3----
2024-03-03 08:48 pm- 0.0 2.9----29.99- 23.7 43.3----
2024-03-03 08:42 pm N 1.9 2.9----29.99- 23.2 43.3----
2024-03-03 08:36 pm- 0.0 2.9----29.99- 24.1 43.3----
2024-03-03 08:30 pm N 1.9 2.9----29.99- 24.3 43.3----
2024-03-03 08:24 pmNNW 1.0 2.9----29.99- 24.3 43.3----
2024-03-03 08:18 pm NW 2.9 4.1----29.99- 24.1 43.3----
2024-03-03 08:12 pm- 0.0 1.9----29.99- 23.9 43.5----
2024-03-03 08:06 pm- 0.0 2.9----29.98- 24.8 43.5----
2024-03-03 08:00 pm NW 1.9 2.9----29.98+0.06 24.6 43.5----
2024-03-03 07:54 pmNNW 1.9 2.9----29.98- 25.0 43.5----
2024-03-03 07:48 pm- 0.0 5.1----29.98- 25.5 43.5----
2024-03-03 07:42 pmENE 2.9 6.0----29.97- 25.3 43.3----
2024-03-03 07:36 pm- 0.0 2.9----29.97- 25.3 43.3----
2024-03-03 07:30 pm N 1.9 2.9----29.97- 25.3 43.3----
2024-03-03 07:24 pm NE 1.9 2.9----29.97- 25.2 43.3----
2024-03-03 07:18 pm- 0.0 1.9----29.97- 26.1 43.3----
2024-03-03 07:12 pm N 1.0 4.1----29.96- 26.2 43.3----
2024-03-03 07:06 pm NE 4.1 7.0----29.96- 26.2 43.3----
2024-03-03 07:00 pm NE 1.9 8.9----29.96+0.05 26.4 43.3----
2024-03-03 06:54 pm NW 1.0 2.9----29.96- 26.2 43.2----
2024-03-03 06:48 pm E 1.0 2.9----29.96- 26.2 43.2----
2024-03-03 06:42 pmNNE 1.9 2.9----29.96- 25.5 43.2----
2024-03-03 06:36 pm N 1.9 2.9----29.96- 26.1 43.2----
2024-03-03 06:30 pm- 0.0 1.9----29.96- 26.8 43.2----
2024-03-03 06:24 pm NE 1.0 4.1----29.95- 26.2 43.2----
2024-03-03 06:18 pm E 1.9 4.1----29.95- 27.0 43.2----
2024-03-03 06:12 pm E 1.9 4.1----29.95- 27.0 43.2----
2024-03-03 06:06 pm E 1.9 4.1----29.95- 27.0 43.2----
2024-03-03 06:00 pm E 1.9 2.9----29.95+0.05 27.1 43.2----
2024-03-03 05:54 pm E 1.9 4.1----29.94- 27.1 43.2----
2024-03-03 05:48 pmENE 1.9 4.1----29.94- 27.5 43.2----
2024-03-03 05:42 pm E 1.0 2.9----29.94- 27.5 43.2----
2024-03-03 05:36 pm- 0.0 1.9----29.94- 27.9 43.2----
2024-03-03 05:30 pmNNE 1.9 4.1----29.93- 28.0 43.2----
2024-03-03 05:24 pmNNE 1.9 4.1----29.93- 28.0 43.2----
2024-03-03 05:18 pm- 0.0 2.9----29.93- 28.6 43.2----
2024-03-03 05:12 pmNNW 1.0 1.9----29.93- 28.9 43.2----
2024-03-03 05:06 pmNNW 1.0 1.9----29.93- 28.9 43.2----
2024-03-03 05:00 pm- 0.0 4.1----29.93+0.04 29.1 43.2----
2024-03-03 04:54 pm- 0.0 4.1----29.93- 29.3 43.2----
2024-03-03 04:48 pm NW 2.9 4.1----29.92- 29.5 43.2----
2024-03-03 04:42 pmNNW 1.0 4.1----29.92- 29.8 43.2----
2024-03-03 04:36 pm NW 1.9 5.1----29.92- 29.7 43.3----
2024-03-03 04:30 pmNNE 1.9 2.9----29.92- 29.1 43.3----
2024-03-03 04:24 pmENE 1.9 1.9----29.92- 29.3 43.3----
2024-03-03 04:18 pmENE 1.0 5.1----29.92- 29.1 43.3----
2024-03-03 04:12 pm NE 1.9 5.1----29.92- 29.1 43.3----
2024-03-03 04:06 pmNNE 2.9 5.1----29.91- 29.1 43.5----
2024-03-03 04:00 pm-------29.91+0.04 29.7 43.3----
2024-03-03 03:54 pm-------29.91- 30.2 43.3----
2024-03-03 03:48 pm- 0.0 2.9----29.91- 30.4 43.3----
2024-03-03 03:42 pmWNW 2.9 6.0----29.91- 30.4 43.3----
2024-03-03 03:36 pm NW 2.9 7.0----29.91- 30.7 43.3----
2024-03-03 03:30 pmWNW 4.1 7.0----29.91-- 43.3----
2024-03-03 03:24 pmWNW 5.1 7.0----29.90-- 43.3----
2024-03-03 03:18 pmNNW 1.9 5.1----29.90- 30.6 43.3----
2024-03-03 03:12 pm NW 6.0 8.9----29.90- 30.2 43.3----
2024-03-03 03:06 pmWSW 2.9 6.0----29.90- 30.0 43.3----
2024-03-03 03:00 pmWNW 1.9 8.0----29.89+0.03 30.7 43.2----
2024-03-03 02:54 pm W 6.0 8.0----29.89- 30.2 43.2----